FW8306 Weather Reports


Display with metric or nautical units.
time (UTC)temp
F
wind
direction
speed
MPH
gust
MPH
rain 1hr
in
rain 24hr
in
rain mn
in
humidity
%
barometer
mb
20260506210100 45 0.0 0.0 0.00 0.00 0.00 80 1014.7
20260506204553 46 0.0 0.0 0.00 0.00 0.00 80 1014.6
20260506203139 46 0.0 0.0 0.00 0.00 0.00 79 1014.6
20260506201552 46 0.0 0.0 0.00 0.00 0.00 78 1014.6
20260506200053 46 0.0 0.0 0.00 0.00 0.00 77 1014.6
20260506194555 47 0.0 0.0 0.00 0.00 0.00 76 1014.4
20260506193052 47 0.0 0.0 0.00 0.00 0.00 75 1014.3
20260506191559 48 0.0 0.0 0.00 0.00 0.00 73 1014.1
20260506190056 48 0.0 0.0 0.00 0.00 0.00 71 1014.1
20260506184559 49 0.0 0.0 0.00 0.00 0.00 71 1013.8
20260506183058 50 0.0 0.0 0.00 0.00 0.00 71 1013.6
20260506181556 50 0.0 0.0 0.00 0.00 0.00 69 1013.4
20260506180055 51 0.0 0.0 0.00 0.00 0.00 68 1013.3
20260506174605 52 0.0 0.0 0.00 0.00 0.00 65 1013.1
20260506173058 52 0.0 0.0 0.00 0.00 0.00 62 1013.0
20260506171602 53 0.0 0.0 0.00 0.00 0.00 60 1012.9
20260506170100 54 0.0 0.0 0.00 0.00 0.00 56 1012.9
20260506164559 55 0.0 0.0 0.00 0.00 0.00 43 1012.8
20260506163116 55 0.0 0.0 0.00 0.00 0.00 43 1012.8
20260506161552 55 0.0 0.0 0.00 0.00 0.00 42 1012.8
20260506160054 56 0.0 0.0 0.00 0.00 0.00 43 1012.8
20260506154555 56 0.0 0.0 0.00 0.00 0.00 41 1012.7
20260506153114 56 0.0 0.0 0.00 0.00 0.00 40 1012.9
20260506151555 56 0.0 0.0 0.00 0.00 0.00 41 1012.8
20260506150055 56 0.0 0.0 0.00 0.00 0.00 40 1012.7
20260506144555 57 0.0 0.0 0.00 0.00 0.00 39 1012.6
20260506143053 57 0.0 0.0 0.00 0.00 0.00 42 1012.5
20260506141554 57 0.0 0.0 0.00 0.00 0.00 43 1012.6
20260506140053 57 0.0 0.0 0.00 0.00 0.00 45 1012.6
20260506134557 57 0.0 0.0 0.00 0.00 0.00 49 1012.3
20260506133053 57 0.0 0.0 0.00 0.00 0.00 54 1012.1
20260506131551 57 0.0 0.0 0.00 0.00 0.00 53 1012.1
20260506130050 56 0.0 0.0 0.00 0.00 0.00 56 1012.1
20260506124555 57 0.0 0.0 0.00 0.00 0.00 55 1012.1
20260506123107 58 0.0 0.0 0.00 0.00 0.00 58 1012.0
20260506121608 56 0.0 0.0 0.00 0.00 0.00 63 1012.0
20260506120059 55 0.0 0.0 0.00 0.00 0.00 67 1012.1
20260506114559 56 0.0 0.0 0.00 0.00 0.00 68 1012.1
20260506113056 55 0.0 0.0 0.00 0.00 0.00 70 1012.1
20260506111555 54 0.0 0.0 0.00 0.00 0.00 70 1012.2
20260506104550 54 0.0 0.0 0.00 0.00 0.00 65 1012.3
20260506103049 54 0.0 0.0 0.00 0.00 0.00 65 1012.3
20260506101609 54 0.0 0.0 0.00 0.00 0.00 63 1012.2
20260506100101 54 0.0 0.0 0.00 0.00 0.00 61 1012.1
20260506094553 55 0.0 0.0 0.00 0.00 0.00 60 1012.1
20260506093058 55 0.0 0.0 0.00 0.00 0.00 61 1012.0
20260506091549 55 0.0 0.0 0.00 0.00 0.00 56 1011.9
20260506084618 56 0.0 0.0 0.00 0.00 0.00 54 1011.7
20260506083053 54 0.0 0.0 0.00 0.00 0.00 55 1011.7
20260506081603 53 0.0 0.0 0.00 0.00 0.00 56 1011.7
20260506073054 52 0.0 0.0 0.00 0.00 0.00 54 1011.7
20260506071552 53 0.0 0.0 0.00 0.00 0.00 54 1011.7
20260506061556 48 0.0 0.0 0.00 0.00 0.00 57 1011.9
20260506050113 45 0.0 0.0 0.00 0.00 0.00 60 1012.1
20260506044554 44 0.0 0.0 0.00 0.00 0.00 61 1012.2
20260506043050 43 0.0 0.0 0.00 0.00 0.00 61 1012.2
20260506041601 43 0.0 0.0 0.00 0.00 0.00 61 1012.1
20260506040057 43 0.0 0.0 0.00 0.00 0.00 60 1012.0
20260506034601 43 0.0 0.0 0.00 0.00 0.00 60 1012.0
20260506033053 43 0.0 0.0 0.00 0.00 0.00 61 1012.0
20260506031552 43 0.0 0.0 0.00 0.00 0.00 60 1012.0
20260506030056 43 0.0 0.0 0.00 0.00 0.00 59 1012.1
20260506024556 43 0.0 0.0 0.00 0.00 0.00 58 1012.2
20260506023109 43 0.0 0.0 0.00 0.00 0.00 60 1012.3
20260506021552 43 0.0 0.0 0.00 0.00 0.00 61 1012.5
20260506020056 44 0.0 0.0 0.00 0.00 0.00 59 1012.5
20260506014555 44 0.0 0.0 0.00 0.00 0.00 57 1012.7
20260506013100 44 0.0 0.0 0.00 0.00 0.00 60 1012.7
20260506011552 44 0.0 0.0 0.00 0.00 0.00 61 1012.6
20260506010051 45 0.0 0.0 0.00 0.00 0.00 61 1012.7
20260506004600 45 0.0 0.0 0.00 0.00 0.00 62 1012.6
20260506003055 44 0.0 0.0 0.00 0.00 0.00 66 1012.5
20260506001558 42 0.0 0.0 0.00 0.00 0.00 77 1012.3
20260505234555 43 0.0 0.0 0.00 0.00 0.00 75 1012.4
20260505233054 43 0.0 0.0 0.00 0.00 0.00 76 1012.4
20260505231554 43 0.0 0.0 0.00 0.00 0.00 77 1012.5
20260505230118 43 0.0 0.0 0.00 0.00 0.00 77 1012.5
20260505224555 43 0.0 0.0 0.00 0.00 0.00 76 1012.5
20260505223058 43 0.0 0.0 0.00 0.00 0.00 76 1012.5
20260505221559 44 0.0 0.0 0.00 0.00 0.00 76 1012.5
20260505220104 44 0.0 0.0 0.00 0.00 0.00 76 1012.6
20260505214559 45 0.0 0.0 0.00 0.00 0.00 75 1012.7
20260505213104 45 0.0 0.0 0.00 0.00 0.00 75 1012.8
20260505211603 45 0.0 0.0 0.00 0.00 0.00 74 1012.8